View from above orbital plane
|
View from above satellite
|
Ground track
|
The orbit data is extracted from the following two-line orbital elements,
1 20480U 90013C 21016.18703816 -.00000045 00000-0 -20287-4 0 9995
2 20480 99.0727 284.8837 0539693 306.0886 49.1372 12.83429059449631
Epoch (UTC): | 16 January 2021 04:29:20 |
Eccentricity: | 0.0539693 |
inclination: | 99.0727° |
perigee height: | 912 km |
apogee height: | 1743 km |
right ascension of ascending node: | 284.8837° |
argument of perigee: | 306.0886° |
revolutions per day: | 12.83429059 |
mean anomaly at epoch: | 49.1372° |
orbit number at epoch: | 44963 |
The dashed part of the orbit path shows where the satellite is in the earth's shadow,
|
|